When you browse on this site, cookies collect data to enhance your experience and personalize the content and advertising you see.
Visit our Privacy Policy to learn more. By continuing to use the site, you agree to this use of cookies and data.
  • In Czech Republic
  • List of Countries
  • For 7 days
  • Water Temperature
  • Satellite Maps
  • Weather Map
  • Weather Widgets
  • user-avatar
    Login

    Hourly Weather Garoua

    Today, 26 April, Friday

    Time Temperature Precipitation Wind Pressure Humidity
    00:00 +36°C° 0 mm 2 mps 740 mmHg 17%
    01:00 +35°C° 0 mm 2 mps 740 mmHg 19%
    02:00 +33°C° 0 mm 1 mps 740 mmHg 22%
    03:00 +33°C° 0 mm 1 mps 740 mmHg 24%
    04:00 +32°C° 0 mm 1 mps 740 mmHg 27%
    05:00 +32°C° 0 mm 1 mps 740 mmHg 30%
    06:00 +32°C° 0 mm 1 mps 741 mmHg 32%
    07:00 +32°C° 0 mm 1 mps 741 mmHg 35%
    08:00 +35°C° 0 mm 1 mps 741 mmHg 27%
    09:00 +39°C° 0 mm 1 mps 741 mmHg 19%
    10:00 +42°C° 0 mm 1 mps 741 mmHg 12%
    11:00 +44°C° 0 mm 1 mps 741 mmHg 9%
    12:00 +45°C° 0 mm 1 mps 740 mmHg 7%
    13:00 +47°C° 0 mm 1 mps 739 mmHg 5%
    14:00 +47°C° 0 mm 1 mps 739 mmHg 4%
    15:00 +46°C° 0 mm 1 mps 738 mmHg 4%
    16:00 +46°C° 0 mm 1 mps 737 mmHg 3%
    17:00 +44°C° 0 mm 1 mps 737 mmHg 4%
    18:00 +42°C° 0 mm 1 mps 737 mmHg 4%
    19:00 +37°C° 0 mm 0 mps 737 mmHg 5%
    20:00 +36°C° 0 mm 0 mps 738 mmHg 5%
    21:00 +35°C° 0 mm 0 mps 738 mmHg 6%
    22:00 +34°C° 0 mm 0 mps 739 mmHg 6%
    23:00 +35°C° 0 mm 1 mps 739 mmHg 6%

    Tomorrow, 27 April, Saturday

    Time Temperature Precipitation Wind Pressure Humidity
    00:00 +35°C° 0 mm 1 mps 739 mmHg 7%
    01:00 +34°C° 0 mm 1 mps 739 mmHg 7%
    02:00 +33°C° 0 mm 1 mps 738 mmHg 7%
    03:00 +33°C° 0 mm 1 mps 738 mmHg 8%
    04:00 +32°C° 0 mm 1 mps 738 mmHg 8%
    05:00 +32°C° 0 mm 1 mps 738 mmHg 9%
    06:00 +32°C° 0 mm 1 mps 739 mmHg 9%
    07:00 +32°C° 0 mm 1 mps 739 mmHg 10%
    08:00 +35°C° 0 mm 1 mps 740 mmHg 10%
    09:00 +37°C° 0 mm 1 mps 740 mmHg 10%
    10:00 +41°C° 0 mm 2 mps 741 mmHg 10%
    11:00 +43°C° 0 mm 2 mps 740 mmHg 8%
    12:00 +45°C° 0 mm 2 mps 739 mmHg 6%
    13:00 +47°C° 0 mm 2 mps 739 mmHg 4%
    14:00 +46°C° 0 mm 1 mps 738 mmHg 4%
    15:00 +46°C° 0 mm 1 mps 737 mmHg 3%
    16:00 +46°C° 0 mm 1 mps 736 mmHg 3%
    17:00 +44°C° 0 mm 1 mps 737 mmHg 4%
    18:00 +42°C° 0 mm 1 mps 737 mmHg 4%
    19:00 +40°C° 0 mm 1 mps 737 mmHg 5%
    20:00 +39°C° 0 mm 1 mps 738 mmHg 5%
    21:00 +37°C° 0 mm 1 mps 738 mmHg 6%
    22:00 +36°C° 0 mm 1 mps 739 mmHg 6%
    23:00 +35°C° 0 mm 1 mps 739 mmHg 6%

    Day after tomorrow, 28 April, Sunday

    Time Temperature Precipitation Wind Pressure Humidity
    00:00 +35°C° 0 mm 1 mps 739 mmHg 7%
    01:00 +34°C° 0 mm 1 mps 738 mmHg 8%
    02:00 +33°C° 0 mm 1 mps 738 mmHg 8%
    03:00 +33°C° 0 mm 1 mps 738 mmHg 9%
    04:00 +32°C° 0 mm 1 mps 738 mmHg 10%
    05:00 +32°C° 0 mm 1 mps 738 mmHg 11%
    06:00 +32°C° 0 mm 1 mps 739 mmHg 11%
    07:00 +32°C° 0 mm 1 mps 739 mmHg 12%
    08:00 +36°C° 0 mm 2 mps 740 mmHg 16%
    09:00 +38°C° 0 mm 3 mps 740 mmHg 20%
    10:00 +42°C° 0 mm 4 mps 741 mmHg 24%
    11:00 +44°C° 0 mm 4 mps 740 mmHg 19%
    12:00 +45°C° 0 mm 3 mps 739 mmHg 14%
    13:00 +47°C° 0 mm 2 mps 739 mmHg 9%
    14:00 +47°C° 0 mm 2 mps 738 mmHg 8%
    15:00 +47°C° 0 mm 2 mps 737 mmHg 7%
    16:00 +46°C° 0 mm 1 mps 737 mmHg 6%
    17:00 +44°C° 0 mm 1 mps 737 mmHg 7%
    18:00 +42°C° 0 mm 1 mps 737 mmHg 9%
    19:00 +40°C° 0 mm 1 mps 738 mmHg 10%
    20:00 +39°C° 0 mm 1 mps 738 mmHg 12%
    21:00 +39°C° 0 mm 1 mps 739 mmHg 14%
    22:00 +37°C° 0 mm 1 mps 739 mmHg 16%
    23:00 +37°C° 0 mm 2 mps 739 mmHg 19%

    29 April, Monday

    Time Temperature Precipitation Wind Pressure Humidity
    00:00 +37°C° 0 mm 2 mps 739 mmHg 22%
    01:00 +36°C° 0 mm 3 mps 738 mmHg 24%
    02:00 +35°C° 0 mm 2 mps 738 mmHg 25%
    03:00 +35°C° 0 mm 2 mps 738 mmHg 26%
    04:00 +34°C° 0 mm 2 mps 738 mmHg 27%
    05:00 +34°C° 0 mm 2 mps 739 mmHg 29%
    06:00 +35°C° 0 mm 3 mps 739 mmHg 31%
    07:00 +35°C° 0 mm 3 mps 740 mmHg 33%
    08:00 +37°C° 0 mm 4 mps 740 mmHg 33%
    09:00 +40°C° 0 mm 4 mps 741 mmHg 33%
    10:00 +42°C° 0 mm 4 mps 741 mmHg 32%
    11:00 +43°C° 0 mm 3 mps 740 mmHg 28%
    12:00 +45°C° 0 mm 3 mps 739 mmHg 23%
    13:00 +46°C° 0 mm 3 mps 739 mmHg 18%
    14:00 +47°C° 0 mm 2 mps 738 mmHg 17%
    15:00 +47°C° 0 mm 2 mps 737 mmHg 16%
    16:00 +47°C° 0 mm 2 mps 737 mmHg 14%
    17:00 +45°C° 0 mm 2 mps 737 mmHg 16%
    18:00 +43°C° 0 mm 2 mps 737 mmHg 18%
    19:00 +41°C° 0 mm 2 mps 738 mmHg 19%
    20:00 +41°C° 0 mm 2 mps 738 mmHg 20%
    21:00 +40°C° 0 mm 1 mps 739 mmHg 22%
    22:00 +39°C° 0 mm 1 mps 739 mmHg 23%
    23:00 +37°C° 0 mm 1 mps 739 mmHg 24%

    30 April, Tuesday

    Time Temperature Precipitation Wind Pressure Humidity
    00:00 +36°C° 0 mm 1 mps 739 mmHg 25%
    01:00 +36°C° 0 mm 1 mps 739 mmHg 25%
    02:00 +35°C° 0 mm 1 mps 739 mmHg 30%
    03:00 +34°C° 0 mm 1 mps 739 mmHg 35%
    04:00 +31°C° 0 mm 0 mps 739 mmHg 40%
    05:00 +34°C° 0 mm 1 mps 739 mmHg 40%
    06:00 +34°C° 0 mm 1 mps 740 mmHg 41%
    07:00 +34°C° 0 mm 1 mps 741 mmHg 42%
    08:00 +37°C° 0 mm 2 mps 741 mmHg 39%
    09:00 +39°C° 0 mm 2 mps 741 mmHg 35%
    10:00 +41°C° 0 mm 2 mps 741 mmHg 32%
    11:00 +43°C° 0 mm 2 mps 740 mmHg 27%
    12:00 +46°C° 0 mm 2 mps 739 mmHg 22%
    13:00 +47°C° 0 mm 1 mps 738 mmHg 18%
    14:00 +47°C° 0 mm 1 mps 738 mmHg 17%
    15:00 +47°C° 0 mm 1 mps 737 mmHg 16%
    16:00 +47°C° 0 mm 1 mps 737 mmHg 14%
    17:00 +45°C° 0 mm 1 mps 737 mmHg 16%
    18:00 +44°C° 0 mm 1 mps 737 mmHg 17%
    19:00 +42°C° 0 mm 1 mps 738 mmHg 19%
    20:00 +41°C° 0 mm 1 mps 738 mmHg 20%
    21:00 +41°C° 0 mm 1 mps 738 mmHg 21%
    22:00 +40°C° 0 mm 1 mps 739 mmHg 22%
    23:00 +39°C° 0 mm 1 mps 738 mmHg 24%

    1 May, Wednesday

    Time Temperature Precipitation Wind Pressure Humidity
    00:00 +38°C° 0 mm 2 mps 738 mmHg 26%
    01:00 +38°C° 0 mm 2 mps 737 mmHg 28%
    02:00 +37°C° 0 mm 2 mps 738 mmHg 31%
    03:00 +35°C° 0 mm 1 mps 738 mmHg 33%
    04:00 +35°C° 0 mm 1 mps 738 mmHg 35%
    05:00 +35°C° 0 mm 1 mps 739 mmHg 37%
    06:00 +36°C° 0 mm 2 mps 739 mmHg 38%
    07:00 +36°C° 0 mm 2 mps 740 mmHg 39%
    08:00 +38°C° 0 mm 3 mps 740 mmHg 37%
    09:00 +39°C° 0 mm 3 mps 740 mmHg 35%
    10:00 +42°C° 0 mm 4 mps 740 mmHg 33%
    11:00 +43°C° 0 mm 4 mps 740 mmHg 30%
    12:00 +45°C° 0 mm 4 mps 739 mmHg 27%
    13:00 +46°C° 0 mm 3 mps 738 mmHg 24%
    14:00 +46°C° 0 mm 3 mps 738 mmHg 23%
    15:00 +46°C° 0 mm 3 mps 737 mmHg 22%
    16:00 +46°C° 0 mm 2 mps 737 mmHg 21%
    17:00 +45°C° 0 mm 2 mps 737 mmHg 22%
    18:00 +43°C° 0 mm 2 mps 738 mmHg 24%
    19:00 +42°C° 0 mm 1 mps 738 mmHg 25%
    20:00 +41°C° 0.4 mm 1 mps 738 mmHg 28%
    21:00 +40°C° 0.4 mm 1 mps 739 mmHg 31%
    22:00 +39°C° 0.4 mm 1 mps 739 mmHg 34%
    23:00 +37°C° 0.8 mm 1 mps 739 mmHg 38%
    Show more